Location: Seven Kings
(51.5667°N, 0.1000°E)
Time: 05:57:55
(UTC+00:00)

X-37B - Pass Details

Date: 23 June 2021
Orbit: 383 x 392 km, 45.0° (Epoch: 01 July)

Event Time Altitude Azimuth Distance (km) Brightness Sun altitude
Rises 22:05:15 0° 230° (SW) 2,251 4.3 -10.8°
Reaches altitude 10° 22:07:41 10° 211° (SSW) 1,399 3.1 -10.9°
Maximum altitude 22:09:58 19° 164° (SSE) 1,003 2.0 -11.1°
Enters shadow 22:10:00 19° 164° (SSE) 1,003 2.0 -11.1°
